This is the latest recevied weather packets stored in our database for station/object KM4CNW. If no packets are shown the sender has not sent any weather packets the latest 10 day(s).
| Time | Temp. | Humidity | Pressure | Rain* | Wind** | Luminosity | Snow |
|---|---|---|---|---|---|---|---|
| 1777558721 | 15.56° C | 81% | 1005.8 hPa | 0 mm | - | 81 W/m² | - |
| 1777554777 | 15° C | 83% | 1006.1 hPa | 0 mm | - | 35 W/m² | - |
| 1777552956 | 14.44° C | 87% | 1006.1 hPa | 0 mm | - | 22 W/m² | - |
| 1777551741 | 13.89° C | 89% | 1006.3 hPa | 0 mm | - | 23 W/m² | - |
| 1777551438 | 13.89° C | 89% | 1006.1 hPa | 0 mm | - | 24 W/m² | - |
| 1777550529 | 13.89° C | 89% | 1005.4 hPa | 0 mm | - | 29 W/m² | - |
| 1777549921 | 13.89° C | 88% | 1005.1 hPa | 0 mm | - | 24 W/m² | - |
| 1777547493 | 13.33° C | 89% | 1004.4 hPa | 0 mm | - | 6 W/m² | - |
| 1777545979 | 13.89° C | 84% | 1003.8 hPa | 0 mm | - | 2 W/m² | - |
| 1777545675 | 13.89° C | 83% | 1003.6 hPa | 0 mm | - | 1 W/m² | - |
| 1777545372 | 13.89° C | 83% | 1003.8 hPa | 0 mm | - | 1 W/m² | - |
| 1777545069 | 13.89° C | 82% | 1003.7 hPa | 0 mm | - | 0 W/m² | - |
| 1777544766 | 13.89° C | 83% | 1003.9 hPa | 0 mm | - | 0 W/m² | - |
| 1777544461 | 13.89° C | 84% | 1003.9 hPa | 0 mm | - | 0 W/m² | - |
| 1777544157 | 13.89° C | 86% | 1003.7 hPa | 0 mm | - | 0 W/m² | - |
| 1777543855 | 13.89° C | 87% | 1003.6 hPa | 0 mm | - | 0 W/m² | - |
| 1777543551 | 13.89° C | 86% | 1003.4 hPa | 0 mm | - | 0 W/m² | - |
| 1777543248 | 13.89° C | 86% | 1003.6 hPa | 0 mm | - | 0 W/m² | - |
| 1777542944 | 13.89° C | 85% | 1003.7 hPa | 0 mm | - | 0 W/m² | - |
| 1777542336 | 14.44° C | 86% | 1003.9 hPa | 0 mm | - | 0 W/m² | - |
| 1777542033 | 14.44° C | 85% | 1004.1 hPa | 0 mm | - | 0 W/m² | - |
| 1777541731 | 14.44° C | 86% | 1004 hPa | 0 mm | - | 0 W/m² | - |
| 1777541427 | 14.44° C | 84% | 1003.8 hPa | 0 mm | - | 0 W/m² | - |
| 1777541123 | 14.44° C | 83% | 1003.8 hPa | 0 mm | - | 0 W/m² | - |
| 1777540821 | 15° C | 81% | 1003.9 hPa | 0 mm | - | 0 W/m² | - |
* Rain latest hour (hover to see other rain measurements)
** Current wind speed in m/s (hover to see current wind gust speed)